DW6198 Weather Reports


time (UTC)temp
F
wind
direction
speed
knots
gust
knots
rain 1hr
in
rain 24hr
in
rain mn
in
humidity
%
barometer
mb
20260507001607 56 83 0.0 0.0 0.00 0.00 0.00 81 1006.4
20260507000059 56 83 0.0 0.0 0.00 0.00 0.00 80 1006.4
20260506234619 56 83 0.0 0.0 0.00 0.00 0.00 79 1006.5
20260506233054 57 83 0.0 0.9 0.00 0.00 0.00 78 1006.4
20260506231551 57 65 0.9 3.5 0.00 0.00 0.00 76 1006.4
20260506230050 58 92 0.9 2.6 0.00 0.00 0.00 75 1006.4
20260506224539 58 84 0.9 4.3 0.00 0.00 0.00 75 1006.3
20260506223036 58 143 0.0 6.1 0.00 0.00 0.00 75 1006.1
20260506221534 58 143 0.9 6.1 0.00 0.00 0.00 75 1006.0
20260506220036 58 281 0.0 3.5 0.00 0.00 0.00 75 1005.8
20260506214532 56 115 0.0 3.5 0.00 0.00 0.00 80 1005.9
20260506213033 56 108 0.0 1.7 0.00 0.00 0.00 82 1005.9
20260506211531 55 105 0.0 0.9 0.00 0.00 0.00 83 1005.8
20260506210035 56 89 0.0 0.0 0.00 0.00 0.00 84 1005.9
20260506204546 57 89 0.0 0.9 0.00 0.00 0.00 82 1006.1
20260506203031 58 89 0.0 0.9 0.00 0.00 0.00 78 1005.9
20260506201534 59 108 0.0 0.0 0.00 0.00 0.00 75 1005.8
20260506200030 59 108 0.0 0.0 0.00 0.00 0.00 72 1005.8
20260506194528 60 108 0.0 0.0 0.00 0.00 0.00 71 1005.7
20260506193027 60 94 0.0 0.9 0.00 0.00 0.00 70 1005.7
20260506191528 61 94 0.0 0.9 0.00 0.00 0.00 67 1005.6
20260506190026 62 112 0.9 5.2 0.00 0.00 0.00 66 1005.5
20260506184525 62 11 0.0 3.5 0.00 0.00 0.00 66 1005.2
20260506183025 62 86 0.0 5.2 0.00 0.00 0.00 67 1005.0
20260506181527 62 94 0.0 2.6 0.00 0.00 0.00 67 1004.9
20260506180024 61 75 0.0 7.0 0.00 0.00 0.00 68 1004.8
20260506174522 61 75 0.0 2.6 0.00 0.00 0.00 71 1004.9
20260506173023 61 102 0.0 0.9 0.00 0.00 0.00 72 1004.9
20260506171534 62 102 0.0 3.5 0.00 0.00 0.00 72 1004.9
20260506170021 61 78 0.0 4.3 0.00 0.00 0.00 73 1004.9
20260506164521 61 130 0.0 0.9 0.00 0.00 0.00 74 1005.0
20260506163020 61 113 0.9 7.0 0.00 0.00 0.00 73 1005.1
20260506161522 61 94 0.0 6.1 0.00 0.00 0.00 74 1005.2
20260506160029 63 77 0.9 7.0 0.00 0.00 0.00 67 1005.5
20260506154515 64 148 2.6 9.6 0.00 0.00 0.00 64 1005.7
20260506153013 64 41 0.9 7.8 0.00 0.00 0.00 62 1005.8
20260506151520 64 58 2.6 9.6 0.00 0.00 0.00 61 1005.9
20260506150025 65 95 1.7 5.2 0.00 0.00 0.00 59 1005.8
20260506144512 65 70 0.0 6.1 0.00 0.00 0.00 59 1005.9
20260506143033 65 123 0.0 4.3 0.00 0.00 0.00 59 1006.0
20260506141510 65 8 0.9 4.3 0.00 0.00 0.00 59 1006.1
20260506140013 65 77 1.7 4.3 0.00 0.00 0.00 58 1006.3
20260506134509 65 40 0.9 3.5 0.00 0.00 0.00 57 1006.4
20260506133009 65 104 2.6 6.1 0.00 0.00 0.00 57 1006.6
20260506131515 66 77 0.9 7.8 0.00 0.00 0.00 56 1006.6
20260506130010 66 41 2.6 6.1 0.00 0.00 0.00 53 1006.8
20260506124507 67 85 1.7 6.1 0.00 0.00 0.00 54 1006.9
20260506123007 66 328 1.7 7.0 0.00 0.00 0.00 56 1007.0
20260506121507 66 103 1.7 5.2 0.00 0.00 0.00 55 1007.1
20260506120006 66 72 0.9 3.5 0.00 0.00 0.00 57 1007.1
20260506114505 67 122 0.9 4.3 0.00 0.00 0.00 56 1007.1
20260506113002 67 69 1.7 7.0 0.00 0.00 0.00 57 1007.2
20260506111503 66 343 0.9 3.5 0.00 0.00 0.00 59 1007.3
20260506110006 65 87 0.0 4.3 0.00 0.00 0.00 60 1007.4
20260506104501 66 101 0.9 9.6 0.00 0.00 0.00 59 1007.6
20260506103059 67 92 1.7 7.0 0.00 0.00 0.00 58 1007.4
20260506101603 66 332 2.6 7.8 0.00 0.00 0.00 62 1007.6
20260506100056 66 269 1.7 7.0 0.00 0.00 0.00 59 1007.7
20260506094557 65 273 1.7 7.0 0.00 0.00 0.00 60 1007.8
20260506093054 64 39 0.9 7.0 0.00 0.00 0.00 65 1007.7
20260506091548 63 115 0.0 3.5 0.00 0.00 0.00 65 1007.6
20260506090045 62 98 0.9 5.2 0.00 0.00 0.00 66 1007.5
20260506084542 61 70 2.6 10.4 0.00 0.00 0.00 69 1007.5
20260506083036 59 91 1.7 6.1 0.00 0.00 0.00 73 1007.5
20260506081534 58 282 0.9 7.0 0.00 0.00 0.00 74 1007.4
20260506073022 56 68 0.9 3.5 0.00 0.00 0.00 79 1007.1
20260506071521 55 75 0.9 3.5 0.00 0.00 0.00 81 1007.0
20260506061518 53 128 0.0 0.9 0.00 0.00 0.00 86 1006.9
20260506044510 51 132 0.0 0.0 0.00 0.00 0.00 83 1006.6
20260506043007 51 132 0.0 0.0 0.00 0.00 0.00 85 1006.2
20260506041513 50 131 0.0 0.0 0.00 0.00 0.00 86 1006.0
20260506040006 50 131 0.0 0.0 0.00 0.00 0.00 85 1005.9
20260506034507 50 132 0.0 0.0 0.00 0.00 0.00 84 1005.7
20260506033004 50 131 0.0 0.0 0.00 0.00 0.00 85 1005.5
20260506031507 50 132 0.0 0.0 0.00 0.00 0.00 84 1005.6
20260506030100 50 131 0.0 0.0 0.00 0.00 0.00 83 1005.4
20260506024600 50 132 0.0 0.0 0.00 0.00 0.00 82 1005.3
20260506023100 51 131 0.0 0.0 0.00 0.00 0.00 81 1005.5
20260506021556 51 131 0.0 0.0 0.00 0.00 0.00 81 1005.6
20260506020053 51 132 0.0 0.0 0.00 0.00 0.00 81 1005.7
20260506014555 52 131 0.0 0.0 0.00 0.00 0.00 79 1005.6
20260506013049 52 131 0.0 0.9 0.00 0.00 0.00 78 1005.6
20260506011547 52 131 0.0 0.9 0.00 0.00 0.00 77 1005.7
20260506010047 53 132 0.0 0.9 0.00 0.00 0.00 75 1005.8
20260506004545 53 144 0.0 0.9 0.00 0.00 0.00 75 1005.8
20260506003042 54 162 0.0 2.6 0.00 0.00 0.00 74 1005.8